Regional Weather Roundup
Issued by NWS Upton, NY

Current Version | Previous Version | Text Only | Print | Product List | Glossary On
Versions: 1 2 3 4 5 6 7 8 9 10 11 12 13 14 15 16 17 18 19 20 21 22 23 24 25 26 27 28 29 30 31 32 33 34 35 36 37 38 39 40 41 42 43 44 45 46 47 48 49 50
000
ASUS41 KOKX 302204
RWROKX

REGIONAL WEATHER ROUNDUP
NATIONAL WEATHER SERVICE NEW YORK NY
600 PM EDT FRI SEP 30 2016

NOTE: "FAIR" INDICATES FEW OR NO CLOUDS BELOW 12,000 FEET WITH NO
SIGNIFICANT WEATHER AND/OR OBSTRUCTIONS TO VISIBILITY.

NYZ071-072-176-178-NJZ106-104-302300-
NEW YORK CITY METRO AREA

CITY           SKY/WX    TMP DP  RH WIND       PRES   REMARKS
Central Park   LGT RAIN  58  56  93 NE9G17    30.27R FOG
LaGuardia APRT LGT RAIN  63  58  83 NE28G40   30.24S
Kennedy INTL   LGT RAIN  60  57  89 NE21G28   30.23R FOG
Newark/Liberty LGT RAIN  58  57  97 N15       30.25R VSB 1
Bronx Bot Gard   N/A     57  54  88 NE13      30.25F
Wall St Helipt CLOUDY    63  61  94 NE16G26   30.24R
Teterboro      DRIZZLE   59  54  83 VRB7      30.25R FOG
$$

NYZ177-179-078>081-302300-
LONG ISLAND NEW YORK

CITY           SKY/WX    TMP DP  RH WIND       PRES   REMARKS
Farmingdale    LGT RAIN  59  57  93 E15G24    30.23S FOG
MacArthur/ISP  DRIZZLE   59  57  93 NE18G30   30.23S FOG
Shirley        LGT RAIN  58  57  97 VRB6      30.25S FOG
Riverhead      NOT AVBL
Westhampton    LGT RAIN  59  56  89 NE20G28   30.26S
Southampton      N/A     59  57  94 E12       30.21S
Bridgehampton    N/A     57  55  94 N6        30.11S
East Hampton   LGT RAIN  58  56  94 NE15G25   30.25S
Montauk          N/A     59  58  96 NE15G29   30.28S
$$

NYZ052-065-067-302300-
HUDSON VALLEY

CITY           SKY/WX    TMP DP  RH WIND       PRES   REMARKS
White Plains   CLOUDY    57  53  86 NE9G17    30.25S
Newburgh       DRIZZLE   55  54  94 NE14      30.31S FOG
Montgomery     LGT RAIN  56  53  90 NE14      30.30R FOG
Poughkeepsie   CLOUDY    54  53  97 N8        30.30S
Albany         LGT RAIN  60  46  59 NE8       30.35S
$$

NJZ001-105-106-008-010-013-015-019>022-104-302300-
NEW JERSEY

CITY           SKY/WX    TMP DP  RH WIND       PRES   REMARKS
Newark/Liberty LGT RAIN  58  57  97 N15       30.25R VSB 1
Teterboro      DRIZZLE   59  54  83 VRB7      30.25R FOG
Caldwell       LGT RAIN  58  55  90 NE6       30.27R FOG
Morristown     LGT RAIN  57  55  94 NE8G18    30.26S FOG
Somerville     CLOUDY    59  55  87 NE5       30.23R FOG
Linden         NOT AVBL
Sussex         CLOUDY    56  55  97 NE13      30.28S FOG
Abdover          N/A     56  54  93 VRB5      30.27S
Trenton        CLOUDY    60  56  86 E18G28    30.21S
Millville      CLOUDY    64  63  96 NE18      30.15R
Atlantic City  CLOUDY    63  62  97 NE18G25   30.15R FOG
Wrightstown    CLOUDY    61  59  94 NE16      30.17S FOG
Toms River     LGT RAIN  61  60  97 NE17G23   30.20R FOG
Belmar         LGT RAIN  60  60 100 NE20G28   30.21S FOG
$$

PAZ047>061-062-071-302300-
EASTERN PENNSYLVANIA

CITY           SKY/WX    TMP DP  RH WIND       PRES   REMARKS
Philadelphia   CLOUDY    62  59  90 NE16G23   30.19S
Allentown      LGT RAIN  58  55  90 NE10      30.24R FOG
Scranton       CLOUDY    58  52  80 NE9       30.25R
$$

CTZ002-004>006-009-010-012-RIZ004-006-007-MAZ004-011-015-302300-
SOUTHERN NEW ENGLAND
 IN CT

CITY           SKY/WX    TMP DP  RH WIND       PRES   REMARKS
Bradley INTL   LGT RAIN  54  51  90 N13       30.36S
Hartford       CLOUDY    56  54  93 N10       30.33F
Danbury        CLOUDY    55  52  89 NE15G21   30.30S
Wtrbury/Oxford CLOUDY    54  48  82 E12G23    30.30S
Bridgeport     CLOUDY    60  53  77 NE22      30.27S
Meriden        CLOUDY    57  53  86 N9        30.32S
New Haven      CLOUDY    58  54  86 NE14G23   30.28F
Chester        LGT RAIN  55  54  94 NE10G20   30.29F
Groton         CLOUDY    59  55  87 NE17      30.29S FOG
Wilimantic     CLOUDY    57  54  89 NE13      30.34S

 IN RI

CITY           SKY/WX    TMP DP  RH WIND       PRES   REMARKS
Providence     LGT RAIN  57  54  89 NE15      30.35S
Block Island   LGT RAIN  59  57  93 NE22G31   30.28S FOG
Westerly       LGT RAIN  58  54  86 NE10G20   30.31S FOG
 IN MA

CITY           SKY/WX    TMP DP  RH WIND       PRES   REMARKS
Boston         LGT RAIN  57  53  86 NE17G23   30.39F FOG
Worcester      LGT RAIN  50  48  93 NE9G22    30.37S FOG
Westfield      LGT RAIN  54  52  93 NE9       30.37S FOG
Provincetown   RAIN      57  56  96 E14       30.38S FOG
Nantucket      LGT RAIN  59  57  93 NE20G25   30.31R FOG
$$

ANZ330-335-338-340-345-350-353-355-302300-
COASTAL MARINE OBSERVATIONS


STATION/POSITION TIME  SKY/WX   TEMP    WIND        PRES    VSBY  WAVE
                                AIR SEA DIR/SP/G                  HT/PER
                 (UTC)          (F)     (DEG/KT/KT) (MB)    (MI)  (FT/S)
NY HARB ENTRANCE 2050            62 69   50/ 29/ 35 1021.3         12/ 9
20S FIRE ISLAND  2050            63 67   60/ 31/ 41 1020.7         15/ 9
GREAT SOUTH BAY  2130            60 64   60/ 19/ 23   N/A
23 SSW MONTAUK P 2050            61 64   60/ 31/ 37 1022.6         11/ 8
15 E BARNEGAT LI 2130               69                N/A          13/ 9
HUDSON CANYON    2050            69 71              1018.9         12/10
KINGS POINT      2124            59 69              1023.6
EXECUTION ROCKS  2130            62      50/ 25/ 37   N/A
CENTRAL LI SOUND NOT AVBL
EASTERN LI SOUND NOT AVBL
ROBBINS REEF     2124            60      50/ 19/ 22 1023.8
$$


>>>>>>>>>>>>>>>>>>>>>>>>>>>> KEY <<<<<<<<<<<<<<<<<<<<<<<<<<<
>                                                          <
>     SKY/WX - Sky Condition/Present Weather               <
>     TMP    - Temperature in Fahrenheit                   <
>     DP     - Dew Point in Fahrenheit                     <
>     RH     - Relative Humidity in Percent                <
>     WIND   - Direction (from) and Speed in MPH           <
>     PRES   - Mean Sea Level Pressure (inches of Hg)      <
>     WCI    - Wind Chill Index                            <
>     VSB    - VISIBILITY IN MILES                         <
>     HX     - HEAT INDEX                                  <
>     TC     - TEMPERATURE IN CELSIUS                      <
>     VRB    - VARIABLE WIND DIRECTION                     <
>                                                          <
>>>>>>>>>>>>>>>>>>>>>>>>>>>> KEY <<<<<<<<<<<<<<<<<<<<<<<<<<<




USA.gov is the U.S. government's official web portal to all federal, state and local government web resources and services.